Location: G�migny
(47.9646°N, 1.6950°E)
Time: 19:33:38
(UTC+00:00)

Okean-O - Pass Details

Date: 23 October 2019
Orbit: 639 x 641 km, 98.2° (Epoch: 11 November)

Event Time Altitude Azimuth Distance (km) Brightness Sun altitude
Rises 17:44:43 0° 173° (S) 2,933 6.0 -9.7°
Reaches altitude 10° 17:46:56 10° 177° (S) 2,029 5.2 -10.1°
Maximum altitude 17:51:19 63° 258° (WSW) 721 3.2 -10.8°
Drops below altitude 10° 17:55:44 10° 340° (NNW) 2,044 5.4 -11.5°
Sets 17:57:59 0° 344° (NNW) 2,958 6.2 -11.9°
